Terug naar catalogus

ATLAS D DEB

ActiefLEO
NORAD 2327·DEBRIS·🇺🇸 United States

Gelanceerd Jul 14, 1966 vanaf Vandenberg Space Force Base

Loading…

Volgende Passages (komende 24 uur)

TLE

VersSource: Space-Track

Epoch: Sep 14, 2026, 14:42 UTC

1 02327U 66063B   26257.61254963  .00001143  00000-0  52371-3 0  9993
2 02327 144.1955  26.9851 0031443  92.2976 268.1315 14.05806072 50673

Volg ATLAS D DEB in realtime met AllMySat

Download on the App Store